DW6047 Weather Reports


Display with metric or nautical units.
time (UTC)temp
F
wind
direction
speed
MPH
gust
MPH
rain 1hr
in
rain 24hr
in
rain mn
in
humidity
%
barometer
mb
20260510153116 67 235 0.0 6.0 0.00 0.00 0.00 22 1014.4
20260510151603 66 249 1.0 6.0 0.00 0.00 0.00 18 1014.4
20260510150015 62 271 0.0 2.0 0.00 0.00 0.00 18 1014.3
20260510144616 66 272 0.0 4.0 0.00 0.00 0.00 18 1014.3
20260510143006 63 17 0.0 1.0 0.00 0.00 0.00 18 1014.3
20260510141513 61 17 0.0 0.0 0.00 0.00 0.00 18 1014.4
20260510140106 59 17 0.0 1.0 0.00 0.00 0.00 18 1014.3
20260510134508 58 17 0.0 0.0 0.00 0.00 0.00 18 1014.3
20260510133100 57 17 0.0 0.0 0.00 0.00 0.00 18 1014.2
20260510131604 56 17 0.0 0.0 0.00 0.00 0.00 18 1014.4
20260510130009 55 17 0.0 0.0 0.00 0.00 0.00 18 1014.4
20260510124521 55 17 0.0 2.0 0.00 0.00 0.00 18 1014.6
20260510123003 55 17 0.0 0.0 0.00 0.00 0.00 18 1014.5
20260510121509 54 17 0.0 0.0 0.00 0.00 0.00 18 1014.2
20260510120142 54 17 0.0 0.0 0.00 0.00 0.00 18 1014.0
20260510114520 54 17 0.0 0.0 0.00 0.00 0.00 18 1013.8
20260510113105 53 17 0.0 0.0 0.00 0.00 0.00 18 1013.4
20260510111518 53 17 0.0 0.0 0.00 0.00 0.00 18 1013.2
20260510110105 53 17 0.0 0.0 0.00 0.00 0.00 18 1012.9
20260510104519 53 17 0.0 0.0 0.00 0.00 0.00 18 1013.0
20260510103022 53 17 0.0 0.0 0.00 0.00 0.00 18 1013.3
20260510101529 53 17 0.0 0.0 0.00 0.00 0.00 18 1013.1
20260510100023 53 17 0.0 0.0 0.00 0.00 0.00 18 1012.8
20260510094516 53 17 0.0 0.0 0.00 0.00 0.00 18 1012.5
20260510093019 53 17 0.0 0.0 0.00 0.00 0.00 18 1012.5
20260510091557 53 17 0.0 0.0 0.00 0.00 0.00 18 1012.7
20260510090006 53 17 0.0 0.0 0.00 0.00 0.00 18 1012.7
20260510084542 53 17 0.0 0.0 0.00 0.00 0.00 18 1012.7
20260510083003 53 17 0.0 0.0 0.00 0.00 0.00 18 1012.6
20260510081530 52 17 0.0 0.0 0.00 0.00 0.00 18 1012.9
20260510080114 52 17 0.0 0.0 0.00 0.00 0.00 18 1012.8
20260510074508 53 17 0.0 1.0 0.00 0.00 0.00 18 1012.9
20260510073027 53 17 0.0 0.0 0.00 0.00 0.00 18 1012.6
20260510071526 52 17 0.0 0.0 0.00 0.00 0.00 18 1012.4
20260510070003 52 17 0.0 0.0 0.00 0.00 0.00 18 1012.1
20260510064518 52 17 0.0 0.0 0.00 0.00 0.00 18 1012.2
20260510063030 52 17 0.0 0.0 0.00 0.00 0.00 18 1012.5
20260510061510 52 17 0.0 0.0 0.00 0.00 0.00 18 1012.6
20260510060008 52 17 0.0 0.0 0.00 0.00 0.00 18 1012.7
20260510054523 52 17 0.0 0.0 0.00 0.00 0.00 18 1012.2
20260510053101 52 17 0.0 0.0 0.00 0.00 0.00 18 1012.1
20260510051527 53 17 0.0 0.0 0.00 0.00 0.00 18 1012.2
20260510050003 53 17 0.0 0.0 0.00 0.00 0.00 18 1012.3
20260510044500 53 17 0.0 0.0 0.00 0.00 0.00 18 1012.3
20260510043009 53 17 0.0 0.0 0.00 0.00 0.00 18 1012.4
20260510041532 53 17 0.0 0.0 0.00 0.00 0.00 18 1012.4
20260510040001 54 17 0.0 0.0 0.00 0.00 0.00 18 1012.3
20260510034513 54 17 0.0 0.0 0.00 0.00 0.00 18 1012.2
20260510033057 54 17 0.0 0.0 0.00 0.00 0.00 18 1012.3
20260510031515 54 17 0.0 0.0 0.00 0.00 0.00 18 1012.1
20260510030104 54 17 0.0 0.0 0.00 0.00 0.00 18 1012.3
20260510024531 55 17 0.0 0.0 0.00 0.00 0.00 18 1012.1
20260510023055 55 17 0.0 0.0 0.00 0.00 0.00 18 1012.1
20260510021559 56 17 0.0 0.0 0.00 0.00 0.00 18 1011.9
20260510020113 56 17 0.0 0.0 0.00 0.00 0.00 18 1011.9
20260510014600 57 17 0.0 0.0 0.00 0.00 0.00 18 1011.9
20260510013023 57 17 0.0 0.0 0.00 0.00 0.00 18 1011.9
20260510011600 57 17 0.0 0.0 0.00 0.00 0.00 18 1011.9
20260510010007 57 17 0.0 0.0 0.00 0.00 0.00 18 1011.6
20260510004515 57 17 0.0 0.0 0.00 0.00 0.00 18 1011.5
20260510003019 57 17 0.0 0.0 0.00 0.00 0.00 18 1011.2
20260510001555 57 17 0.0 0.0 0.00 0.00 0.00 18 1011.0
20260510000057 57 17 0.0 0.0 0.00 0.00 0.00 18 1010.9
20260509234613 57 17 0.0 0.0 0.00 0.00 0.00 18 1010.8
20260509233020 57 17 0.0 0.0 0.00 0.00 0.00 18 1010.9
20260509231606 57 17 0.0 0.0 0.00 0.00 0.00 18 1010.9
20260509230103 58 17 0.0 0.0 0.00 0.00 0.00 18 1010.8
20260509224507 59 17 0.0 0.0 0.00 0.00 0.00 18 1010.8
20260509223017 59 17 0.0 0.0 0.00 0.00 0.00 18 1010.9
20260509221525 60 17 0.0 0.0 0.00 0.00 0.00 18 1011.0
20260509220029 59 17 0.0 0.0 0.00 0.00 0.00 18 1011.0
20260509214505 59 17 0.0 0.0 0.00 0.00 0.00 18 1010.9
20260509213021 58 296 0.0 0.0 0.00 0.00 0.00 18 1010.9
20260509211559 59 296 0.0 0.0 0.00 0.00 0.00 18 1011.1
20260509210107 59 296 0.0 1.0 0.00 0.00 0.00 18 1011.3
20260509204506 59 32 0.0 0.0 0.00 0.00 0.00 18 1011.4
20260509203024 58 32 0.0 0.0 0.00 0.00 0.00 18 1011.4
20260509201515 58 32 0.0 0.0 0.00 0.00 0.00 18 1011.3
20260509200024 58 32 0.0 0.0 0.00 0.00 0.00 18 1011.4
20260509194601 57 32 0.0 0.0 0.00 0.00 0.00 18 1011.5
20260509193053 57 32 0.0 0.0 0.00 0.00 0.00 18 1011.7
20260509191501 57 254 0.0 0.0 0.00 0.00 0.00 18 1012.2
20260509190013 57 254 0.0 0.0 0.00 0.00 0.00 18 1012.6
20260509184507 57 254 0.0 0.0 0.00 0.00 0.00 18 1012.8
20260509183024 57 254 0.0 2.0 0.00 0.00 0.00 18 1012.8
20260509181557 58 254 0.0 0.0 0.00 0.00 0.00 18 1012.9
20260509180021 59 254 0.0 0.0 0.00 0.00 0.00 18 1012.9
20260509174611 58 254 0.0 0.0 0.00 0.00 0.00 18 1012.7
20260509173023 58 254 0.0 0.0 0.00 0.00 0.00 18 1012.7
20260509171600 58 254 0.0 0.0 0.00 0.00 0.00 18 1012.4
20260509170012 57 254 0.0 0.0 0.00 0.00 0.00 18 1012.6
20260509164506 57 254 0.0 1.0 0.00 0.00 0.00 18 1012.6
20260509163032 56 254 0.0 2.0 0.00 0.00 0.00 18 1012.9
20260509161617 57 254 0.0 1.0 0.00 0.00 0.00 18 1012.9
20260509160121 55 254 1.0 5.0 0.00 0.00 0.00 18 1012.9
20260509154510 54 240 0.0 4.0 0.00 0.00 0.00 18 1013.1